SCP
0 0 0 0 0 0 -0 0 -0 -0 -0 -0 -0 -0 -0 -0 -0 -0 -0 -0 -0 -0 -0 0 0 0 0 0 0 0 0 0 0 0 0 0 0 0 0 0 0 0 0 0 0 0 0
0 -0 -0 0 0 0 0 -0 -0 -0 -0 -0 -0 -0 -0 -0 -0 -0 -0 -0 -0 0 0 0 0 0 0 0 0 0 0 0 0 0 0 0 0 0 0 0 0 0 0 0 0 0 0
0 0 -0 -0 -0 -0 0 0 -0 -0 -0 -0 -0 -0 -0 -0 -0 -0 -0 -0 -0 0 0 0 0 0 0 0 0 0 0 0 0 0 0 0 0 0 0 0 0 0 0 0 0 0 0
0 0 0 0 -0 -0 -0 -0 -0 -0 -0 -0 -0 -0 -0 -0 -0 -0 -0 -0 -0 -0 -0 -0 0 0 0 0 0 0 0 0 0 0 0 0 0 0 0 0 0 0 0 0 0 0 0
0 0 0 0 0 0 -0 -0 -0 -0 -0 -0 -0 -0 -0 -0 -0 -0 0 0 -0 0 0 0 0 0 0 0 0 0 0 0 0 0 0 0 0 0 0 0 0 0 0 0 0 0 0
0 0 0 0 0 0 0 0 -0 0 -0 -0 -0 -0 -0 -0 -0 0 0 0 0 0 0 0 0 0 0 0 0 0 0 0 0 0 0 0 0 0 0 0 0 0 0 0 0 0 0
0 0 0 0 0 0 0 0 0 0 -0 -0 -0 -0 -0 -0 -0 0 0 0 0 0 0 0 0 0 0 0 0 0 0 0 0 0 0 0 0 0 0 0 0 0 0 0 0 0 0
0 0 0 0 0 0 0 0 0 -0 -0 -0 -0 -0 -0 -0 -0 0 0 0 0 0 0 0 0 0 0 0 0 0 0 0 0 0 0 0 0 0 0 0 0 0 0 0 0 0 0
0 0 0 0 0 0 0 0 0 0 0 -0 -0 -0 -0 -0 0 0 0 0 0 0 0 0 0 0 0 0 0 0 0 0 0 0 0 0 0 0 0 0 0 0 0 0 0 0 0
0 0 0 0 0 0 0 0 0 0 0 0 0 -0 -0 -0 0 0 0 0 0 0 0 0 0 0 0 0 0 0 0 0 0 0 0 0 0 0 0 0 0 0 0 0 0 0 0
-0 -0 0 0 0 0 0 0 0 0 0 0 -0 -0 0 0 0 0 0 0 0 0 0 0 0 0 0 0 0 0 0 0 0 0 0 0 0 0 0 0 0 0 0 0 0 0 0
0 0 0 0 0 0 -0 0 0 -0 -0 -0 -0 -0 -0 0 0 0 0 0 0 0 0 0 0 0 0 -0 0 0 0 0 0 0 0 0 0 0 0 0 0 0 0 0 0 0 0
0 0 0 0 0 0 -0 -0 0 -0 -0 -0 -0 -0 0 0 0 0 0 0 0 0 0 0 0 0 0 0 0 0 0 0 0 0 0 0 0 0 0 0 0 0 0 0 0 0 0
0 0 0 0 0 0 -0 -0 0 -0 -0 -0 -0 -0 0 0 -0 -0 0 0 0 0 0 0 0 0 0 0 0 0 0 0 0 0 0 0 0 0 0 0 0 0 0 0 0 0 0
0 0 0 0 0 0 -0 -0 -0 -0 -0 -0 -0 0 0 0 -0 -0 0 0 0 0 0 0 0 0 0 0 0 0 0 0 0 0 0 0 0 0 0 0 0 0 0 0 0 0 0
0 0 0 0 0 0 0 -0 0 -0 -0 -0 0 0 0 -0 0 0 0 0 0 0 0 0 0 0 0 0 0 0 0 0 0 0 0 0 0 0 0 0 0 0 0 0 0 0 0
0 0 0 0 0 0 0 -0 0 0 -0 -0 0 0 0 0 0 0 0 0 0 0 0 0 0 0 0 0 0 0 0 0 0 0 0 0 0 0 0 0 0 0 0 0 0 0 0
0 0 0 0 0 0 0 0 -0 0 0 0 0 0 0 0 0 0 0 0 0 0 0 0 0 0 0 0 0 0 0 0 0 0 0 0 0 0 0 0 0 0 0 0 0 0 0
0 0 0 0 0 0 0 0 0 0 0 0 0 0 0 0 0 0 0 0 0 0 0 0 0 0 0 0 0 0 0 0 0 0 0 0 0 0 0 0 0 0 0 0 0 0 0
0 0 0 0 0 0 0 0 0 0 0 0 0 0 0 0 0 0 0 0 0 0 0 0 0 0 0 0 0 0 0 0 0 0 0 0 0 0 0 0 0 0 0 0 0 0 0
0 0 0 0 0 0 0 0 0 0 0 0 0 0 0 0 0 0 0 0 0 0 0 0 0 0 0 0 0 0 0 0 0 0 0 0 0 0 0 0 0 0 0 0 0 0 0
0 0 0 0 0 0 0 0 0 0 0 0 0 0 0 0 0 0 0 0 0 0 0 0 0 0 0 0 0 0 0 0 0 0 0 0 0 0 0 0 0 0 0 0 0 0 0
0 0 0 0 0 0 0 0 0 0 0 0 0 0 0 0 0 0 0 0 0 0 0 0 0 0 0 0 0 0 0 0 0 0 0 0 0 0 0 0 0 0 0 0 0 0 0
0 0 0 0 0 0 0 0 0 0 0 0 0 0 0 0 0 0 0 0 0 0 0 0 0 0 0 0 0 0 0 0 0 0 0 0 0 0 0 0 0 0 0 0 0 0 0
0 0 0 0 0 0 0 0 0 0 0 0 0 0 0 0 0 0 0 0 0 0 0 0 0 0 0 0 0 0 0 0 0 0 0 0 0 0 0 0 0 0 0 0 0 0 0
0 0 0 0 0 0 0 0 0 0 0 0 0 0 0 0 0 0 0 0 0 0 0 0 0 0 0 0 0 0 0 0 0 0 0 0 0 0 0 0 0 0 0 0 0 0 0
0 0 0 0 0 0 0 0 0 0 0 0 0 0 0 0 0 0 0 0 0 0 0 0 0 0 0 0 0 0 0 0 0 0 0 0 0 0 0 0 0 0 0 0 0 0 0
0 0 0 0 0 0 0 0 0 0 0 0 0 0 0 0 0 0 0 0 0 0 0 0 0 0 0 0 0 0 0 0 0 0 0 0 0 0 0 0 0 0 0 0 0 0 0
0 0 0 0 0 0 0 0 0 0 0 0 0 0 0 0 0 0 0 0 0 0 0 0 0 0 0 0 0 0 0 0 0 0 0 0 0 0 0 0 0 0 0 0 0 0 0
Wind_Speed_500mb
38 39 40 42 45 48 52 54 55 54 56 59 48 39 31 23 20 14 10 9 8 7 5 6 6 8 10 9 9 13 12 15 17 20 26 21 18 12 10 10 12 9 7 11 17 20 21
36 37 38 40 41 43 45 49 53 55 56 59 55 43 35 28 20 14 12 10 10 8 7 6 6 7 7 9 15 19 16 16 24 28 21 17 10 10 11 7 9 11 9 14 16 20 17
36 36 37 39 39 40 42 43 45 49 51 57 58 51 41 32 21 14 13 12 11 10 8 7 7 9 17 19 18 22 24 20 20 21 18 10 8 5 13 10 7 5 9 13 25 30 16
35 35 36 36 38 39 40 41 41 41 44 49 56 56 47 36 22 16 17 16 14 13 11 10 9 12 15 12 28 27 27 24 22 23 15 6 2 1 0 9 5 4 4 12 2 9 4
36 35 36 36 36 37 38 38 39 38 38 42 48 54 52 42 27 17 15 18 22 20 18 15 13 10 14 8 22 32 25 23 23 16 8 9 6 4 5 6 6 1 10 7 9 8 6
39 37 36 37 37 36 37 37 36 36 37 38 44 48 51 48 32 21 19 24 16 18 15 16 19 12 10 6 8 31 30 25 17 14 9 7 7 8 6 10 9 7 5 6 13 4 17
41 40 39 37 37 37 36 36 38 39 39 40 42 47 49 52 42 19 17 14 11 7 12 18 9 8 7 10 9 19 35 30 19 3 9 3 12 23 22 17 12 10 11 16 23 20 9
43 41 40 39 38 39 38 38 36 38 43 46 46 47 48 51 48 17 11 6 7 16 21 39 42 51 47 10 2 12 34 22 14 17 9 7 23 26 13 15 17 16 18 20 21 15 12
44 45 42 40 37 40 42 41 42 44 45 46 47 49 52 47 37 21 14 8 11 23 11 15 12 15 20 40 15 17 33 28 12 17 19 21 9 12 18 17 17 16 20 17 23 23 14
46 46 44 43 38 38 41 46 49 50 51 53 53 53 50 45 21 31 18 14 12 16 7 7 6 4 14 15 12 30 34 24 8 24 16 17 27 22 22 23 23 22 21 23 19 15 22
43 43 45 45 43 41 43 45 49 50 54 57 56 51 49 38 40 23 10 9 11 1 8 7 7 10 18 16 4 14 36 22 22 14 12 10 8 9 15 19 23 16 9 15 19 29 14
41 41 43 46 43 40 43 48 50 54 60 64 62 53 52 37 29 13 15 12 4 4 8 5 9 8 12 9 3 8 14 17 9 14 16 25 8 9 16 8 22 8 16 15 4 9 23
41 40 40 43 44 44 49 53 56 59 63 72 68 52 31 21 8 6 21 16 5 7 11 7 7 2 6 4 9 4 9 19 19 11 21 27 37 35 24 28 28 19 16 15 16 17 24
38 41 43 44 43 44 53 56 58 59 68 76 57 25 15 7 11 28 22 5 6 5 8 10 8 4 11 21 6 11 0 10 14 19 16 14 18 12 13 27 26 15 19 19 23 22 29
38 38 36 41 43 45 51 57 57 59 69 72 29 30 32 14 19 26 11 4 3 7 9 13 11 3 2 4 20 18 19 12 5 8 11 9 11 5 5 2 13 10 16 9 23 22 19
35 34 37 40 44 44 45 52 54 57 68 70 19 14 33 21 19 12 4 2 5 7 7 8 4 10 3 13 8 19 8 23 9 5 7 6 17 7 5 3 1 10 7 11 10 16 28
31 28 33 35 39 36 45 45 49 55 64 64 12 7 23 3 7 4 2 3 4 10 5 5 6 4 10 8 10 9 9 4 3 13 5 7 11 18 6 12 30 17 14 5 8 8 12
32 28 30 35 35 39 41 38 43 50 60 64 12 3 22 4 5 4 3 11 17 16 6 4 8 9 9 13 10 12 19 13 14 22 17 21 8 20 29 28 11 9 23 24 17 13 12
35 32 31 34 37 39 40 30 37 42 48 58 23 12 21 6 5 5 8 7 11 17 13 2 6 8 11 12 9 26 15 13 18 15 9 5 7 10 9 13 3 15 15 12 8 9 29
36 33 29 31 35 36 33 30 27 35 35 38 14 6 17 24 13 7 10 7 10 24 9 6 1 4 6 11 17 10 7 10 16 28 26 20 10 26 22 18 9 20 24 16 15 16 30
35 36 28 31 32 34 31 24 23 26 24 25 14 6 8 8 11 11 8 9 17 11 2 11 4 17 13 9 13 16 19 24 24 36 25 6 11 26 32 34 32 35 40 41 45 47 44
35 34 30 28 28 28 28 23 20 18 18 13 7 5 7 5 10 11 3 3 11 12 9 3 4 13 16 10 11 8 8 8 14 7 8 12 9 18 28 27 30 40 48 46 45 44 46
34 32 31 30 28 25 23 20 18 15 14 6 6 1 3 4 7 7 5 8 14 22 16 21 16 14 17 22 26 31 40 36 20 8 9 11 12 16 30 24 20 25 35 36 34 35 28
37 35 33 30 27 25 23 21 18 11 12 8 5 1 3 3 4 8 14 19 17 19 27 32 26 17 6 19 41 48 58 61 54 43 43 20 21 14 15 10 14 4 3 2 14 18 19
40 37 35 33 29 26 25 24 19 12 9 8 8 4 4 5 9 18 14 15 21 32 27 31 33 16 15 16 9 14 6 9 13 23 33 38 26 9 8 12 21 17 8 6 7 11 15
44 43 41 38 33 30 28 25 27 21 19 15 11 14 8 3 7 10 11 17 12 7 9 9 7 26 13 5 5 7 5 5 6 11 11 22 22 12 6 7 8 5 7 5 3 17 7
44 42 40 39 36 32 30 26 25 24 25 23 20 17 16 10 20 16 11 7 7 8 7 15 10 11 7 5 7 7 6 7 7 6 9 10 9 20 18 8 13 3 7 5 8 5 9
40 40 38 37 37 35 33 31 34 27 31 30 30 22 28 15 33 36 30 19 16 12 5 7 16 5 4 5 5 4 5 3 6 8 4 8 14 8 10 10 12 7 4 7 13 27 23
35 35 35 35 36 38 37 36 35 33 34 38 36 28 24 29 26 51 51 52 49 44 19 8 7 4 5 5 3 4 3 3 6 5 3 6 4 1 9 4 3 5 12 24 19 25 47
Wind_Direction_500mb
9 9 10 12 11 12 12 14 16 17 17 14 12 10 7 359 343 336 335 339 341 338 325 306 282 266 274 263 227 172 149 164 173 160 154 152 154 151 166 160 155 212 236 223 257 271 259
4 4 5 6 9 9 12 13 13 13 17 19 15 12 9 3 353 346 340 338 341 335 325 312 295 267 245 253 195 181 169 152 149 149 152 146 151 164 126 156 207 182 234 273 283 265 263
358 358 0 0 2 6 8 11 13 12 16 21 20 14 7 1 358 347 343 333 336 347 337 310 288 275 261 236 195 191 184 179 171 153 150 142 125 148 148 162 154 173 265 283 258 267 254
351 352 353 356 356 359 3 5 8 13 12 17 18 14 8 0 350 342 336 332 320 308 312 305 288 286 253 206 199 188 187 192 187 181 170 171 138 55 129 120 62 236 252 275 337 315 298
343 345 347 349 352 353 355 359 1 5 7 8 12 15 9 1 347 331 327 327 309 295 285 278 271 274 265 224 209 191 192 190 178 187 213 210 257 141 140 193 240 99 249 229 301 293 255
336 338 340 342 345 347 347 349 351 355 357 357 358 5 8 3 346 322 315 327 313 296 274 270 258 285 247 145 138 196 196 185 166 160 146 156 150 180 150 197 240 161 222 242 276 242 307
332 332 333 337 338 341 344 343 342 341 342 344 344 346 352 357 349 314 304 331 339 309 282 240 260 238 253 301 252 200 202 198 201 138 198 86 218 222 222 219 248 258 262 275 277 279 267
337 330 329 332 335 335 338 338 339 338 336 334 334 335 337 344 350 306 277 274 291 308 295 286 265 255 249 215 275 189 194 179 181 206 152 214 248 245 210 212 225 234 267 275 276 268 214
344 344 337 331 333 335 335 336 337 337 335 331 327 327 327 337 348 5 275 256 299 325 283 296 251 244 236 218 232 211 181 184 184 193 200 226 217 99 194 218 223 231 248 256 278 314 258
336 341 344 336 335 336 337 335 335 336 334 331 325 318 315 321 326 329 307 214 304 324 303 266 219 186 161 153 216 215 193 173 191 217 198 242 256 238 229 245 231 261 238 256 268 297 295
333 339 342 343 341 338 336 336 338 339 338 333 329 321 312 308 302 299 277 219 316 23 301 121 94 130 160 182 120 199 197 202 206 183 187 219 192 168 210 238 181 253 212 255 266 281 275
328 333 337 342 341 340 341 340 339 338 338 333 326 324 307 300 285 286 223 206 158 226 255 81 119 141 151 243 355 105 182 210 216 208 236 255 233 254 256 239 200 278 278 278 238 252 257
323 326 332 337 336 342 342 340 338 339 340 338 336 330 307 280 234 156 160 168 163 228 336 40 44 181 176 194 236 244 173 196 214 199 236 256 253 254 246 265 257 245 257 276 265 238 265
315 318 325 326 330 341 343 341 340 342 343 341 350 12 27 57 185 161 154 127 201 2 19 360 341 17 81 25 32 359 22 233 233 241 264 263 267 211 193 219 253 213 216 246 270 273 284
309 313 317 319 328 331 331 334 339 342 348 347 12 47 39 39 151 160 154 168 173 37 351 343 332 72 255 244 319 351 342 310 325 189 230 220 248 287 237 290 210 182 216 278 271 264 269
319 320 318 325 325 325 326 330 340 343 350 347 359 41 31 80 101 146 83 176 109 52 23 13 84 43 341 345 288 175 246 303 328 2 354 328 286 255 262 270 216 249 165 230 229 278 275
329 325 327 327 325 334 328 339 341 343 351 352 5 78 10 124 54 61 88 29 20 17 83 40 129 87 78 4 315 298 255 241 320 272 308 279 251 253 293 256 264 234 232 214 276 262 272
324 333 331 326 326 334 331 343 344 346 353 1 16 59 11 118 45 29 51 333 345 360 39 120 134 148 176 166 242 248 230 239 348 355 314 301 290 263 261 270 293 271 268 263 245 237 242
323 326 327 328 332 333 334 350 346 350 358 1 352 328 10 113 69 33 345 337 8 16 355 344 195 184 165 195 232 252 254 272 262 227 248 334 248 271 260 237 206 245 239 246 244 262 250
316 320 320 326 330 333 341 342 349 352 358 4 8 348 9 54 52 30 3 6 346 347 341 3 21 127 199 220 218 272 241 287 299 290 275 342 244 239 255 290 298 286 275 253 245 245 256
310 315 324 324 324 325 331 337 340 347 356 16 33 49 11 360 21 13 352 322 319 327 256 293 260 238 241 242 243 240 245 267 268 256 278 263 249 251 261 267 275 272 265 262 256 250 254
300 307 313 320 322 323 328 336 338 345 1 43 66 29 14 45 340 341 282 295 320 350 294 318 239 292 280 282 250 285 267 268 247 220 269 211 262 270 263 273 272 276 268 260 254 255 261
301 299 297 303 314 321 325 334 331 341 353 15 44 91 22 207 347 330 333 356 319 337 294 264 291 330 277 268 293 284 269 260 236 224 218 252 252 279 277 289 290 272 260 250 250 248 254
295 296 295 289 296 305 313 316 324 353 342 343 325 314 98 277 250 319 306 304 295 311 287 282 288 289 266 293 298 286 264 256 248 242 224 235 246 251 276 285 250 351 17 341 227 248 238
287 292 293 291 284 287 294 292 298 291 312 285 281 226 199 253 265 287 269 296 305 304 282 271 282 275 315 309 281 292 246 240 239 226 238 222 227 228 222 219 295 274 214 242 241 286 266
282 284 285 284 283 282 280 287 282 283 275 271 254 240 224 241 247 239 286 281 289 291 286 254 271 303 304 247 233 261 275 315 275 165 45 171 204 223 168 240 253 70 140 146 155 277 76
280 279 282 279 278 279 279 266 278 270 275 262 255 237 219 221 257 235 223 267 249 250 260 286 322 321 262 237 236 246 253 241 273 304 152 143 196 224 221 249 284 232 165 136 255 19 299
278 274 276 278 279 277 274 266 254 257 265 262 263 251 235 226 267 264 254 234 241 213 226 328 323 186 274 248 248 239 258 9 308 320 277 198 175 182 214 217 243 149 161 246 342 301 300
282 275 274 276 280 283 278 269 253 241 255 252 254 257 260 236 265 283 282 277 262 251 245 227 258 290 269 281 296 297 265 278 324 300 266 270 273 248 231 268 45 321 288 310 313 301 305
Wind_Speed_850mb
38 39 40 42 45 48 52 54 55 54 56 59 48 39 31 23 20 14 10 9 8 7 5 6 6 8 10 9 9 13 12 15 17 20 26 21 18 12 10 10 12 9 7 11 17 20 21
36 37 38 40 41 43 45 49 53 55 56 59 55 43 35 28 20 14 12 10 10 8 7 6 6 7 7 9 15 19 16 16 24 28 21 17 10 10 11 7 9 11 9 14 16 20 17
36 36 37 39 39 40 42 43 45 49 51 57 58 51 41 32 21 14 13 12 11 10 8 7 7 9 17 19 18 22 24 20 20 21 18 10 8 5 13 10 7 5 9 13 25 30 16
35 35 36 36 38 39 40 41 41 41 44 49 56 56 47 36 22 16 17 16 14 13 11 10 9 12 15 12 28 27 27 24 22 23 15 6 2 1 0 9 5 4 4 12 2 9 4
36 35 36 36 36 37 38 38 39 38 38 42 48 54 52 42 27 17 15 18 22 20 18 15 13 10 14 8 22 32 25 23 23 16 8 9 6 4 5 6 6 1 10 7 9 8 6
39 37 36 37 37 36 37 37 36 36 37 38 44 48 51 48 32 21 19 24 16 18 15 16 19 12 10 6 8 31 30 25 17 14 9 7 7 8 6 10 9 7 5 6 13 4 17
41 40 39 37 37 37 36 36 38 39 39 40 42 47 49 52 42 19 17 14 11 7 12 18 9 8 7 10 9 19 35 30 19 3 9 3 12 23 22 17 12 10 11 16 23 20 9
43 41 40 39 38 39 38 38 36 38 43 46 46 47 48 51 48 17 11 6 7 16 21 39 42 51 47 10 2 12 34 22 14 17 9 7 23 26 13 15 17 16 18 20 21 15 12
44 45 42 40 37 40 42 41 42 44 45 46 47 49 52 47 37 21 14 8 11 23 11 15 12 15 20 40 15 17 33 28 12 17 19 21 9 12 18 17 17 16 20 17 23 23 14
46 46 44 43 38 38 41 46 49 50 51 53 53 53 50 45 21 31 18 14 12 16 7 7 6 4 14 15 12 30 34 24 8 24 16 17 27 22 22 23 23 22 21 23 19 15 22
43 43 45 45 43 41 43 45 49 50 54 57 56 51 49 38 40 23 10 9 11 1 8 7 7 10 18 16 4 14 36 22 22 14 12 10 8 9 15 19 23 16 9 15 19 29 14
41 41 43 46 43 40 43 48 50 54 60 64 62 53 52 37 29 13 15 12 4 4 8 5 9 8 12 9 3 8 14 17 9 14 16 25 8 9 16 8 22 8 16 15 4 9 23
41 40 40 43 44 44 49 53 56 59 63 72 68 52 31 21 8 6 21 16 5 7 11 7 7 2 6 4 9 4 9 19 19 11 21 27 37 35 24 28 28 19 16 15 16 17 24
38 41 43 44 43 44 53 56 58 59 68 76 57 25 15 7 11 28 22 5 6 5 8 10 8 4 11 21 6 11 0 10 14 19 16 14 18 12 13 27 26 15 19 19 23 22 29
38 38 36 41 43 45 51 57 57 59 69 72 29 30 32 14 19 26 11 4 3 7 9 13 11 3 2 4 20 18 19 12 5 8 11 9 11 5 5 2 13 10 16 9 23 22 19
35 34 37 40 44 44 45 52 54 57 68 70 19 14 33 21 19 12 4 2 5 7 7 8 4 10 3 13 8 19 8 23 9 5 7 6 17 7 5 3 1 10 7 11 10 16 28
31 28 33 35 39 36 45 45 49 55 64 64 12 7 23 3 7 4 2 3 4 10 5 5 6 4 10 8 10 9 9 4 3 13 5 7 11 18 6 12 30 17 14 5 8 8 12
32 28 30 35 35 39 41 38 43 50 60 64 12 3 22 4 5 4 3 11 17 16 6 4 8 9 9 13 10 12 19 13 14 22 17 21 8 20 29 28 11 9 23 24 17 13 12
35 32 31 34 37 39 40 30 37 42 48 58 23 12 21 6 5 5 8 7 11 17 13 2 6 8 11 12 9 26 15 13 18 15 9 5 7 10 9 13 3 15 15 12 8 9 29
36 33 29 31 35 36 33 30 27 35 35 38 14 6 17 24 13 7 10 7 10 24 9 6 1 4 6 11 17 10 7 10 16 28 26 20 10 26 22 18 9 20 24 16 15 16 30
35 36 28 31 32 34 31 24 23 26 24 25 14 6 8 8 11 11 8 9 17 11 2 11 4 17 13 9 13 16 19 24 24 36 25 6 11 26 32 34 32 35 40 41 45 47 44
35 34 30 28 28 28 28 23 20 18 18 13 7 5 7 5 10 11 3 3 11 12 9 3 4 13 16 10 11 8 8 8 14 7 8 12 9 18 28 27 30 40 48 46 45 44 46
34 32 31 30 28 25 23 20 18 15 14 6 6 1 3 4 7 7 5 8 14 22 16 21 16 14 17 22 26 31 40 36 20 8 9 11 12 16 30 24 20 25 35 36 34 35 28
37 35 33 30 27 25 23 21 18 11 12 8 5 1 3 3 4 8 14 19 17 19 27 32 26 17 6 19 41 48 58 61 54 43 43 20 21 14 15 10 14 4 3 2 14 18 19
40 37 35 33 29 26 25 24 19 12 9 8 8 4 4 5 9 18 14 15 21 32 27 31 33 16 15 16 9 14 6 9 13 23 33 38 26 9 8 12 21 17 8 6 7 11 15
44 43 41 38 33 30 28 25 27 21 19 15 11 14 8 3 7 10 11 17 12 7 9 9 7 26 13 5 5 7 5 5 6 11 11 22 22 12 6 7 8 5 7 5 3 17 7
44 42 40 39 36 32 30 26 25 24 25 23 20 17 16 10 20 16 11 7 7 8 7 15 10 11 7 5 7 7 6 7 7 6 9 10 9 20 18 8 13 3 7 5 8 5 9
40 40 38 37 37 35 33 31 34 27 31 30 30 22 28 15 33 36 30 19 16 12 5 7 16 5 4 5 5 4 5 3 6 8 4 8 14 8 10 10 12 7 4 7 13 27 23
35 35 35 35 36 38 37 36 35 33 34 38 36 28 24 29 26 51 51 52 49 44 19 8 7 4 5 5 3 4 3 3 6 5 3 6 4 1 9 4 3 5 12 24 19 25 47
Wind_Direction_850mb
9 9 10 12 11 12 12 14 16 17 17 14 12 10 7 359 343 336 335 339 341 338 325 306 282 266 274 263 227 172 149 164 173 160 154 152 154 151 166 160 155 212 236 223 257 271 259
4 4 5 6 9 9 12 13 13 13 17 19 15 12 9 3 353 346 340 338 341 335 325 312 295 267 245 253 195 181 169 152 149 149 152 146 151 164 126 156 207 182 234 273 283 265 263
358 358 0 0 2 6 8 11 13 12 16 21 20 14 7 1 358 347 343 333 336 347 337 310 288 275 261 236 195 191 184 179 171 153 150 142 125 148 148 162 154 173 265 283 258 267 254
351 352 353 356 356 359 3 5 8 13 12 17 18 14 8 0 350 342 336 332 320 308 312 305 288 286 253 206 199 188 187 192 187 181 170 171 138 55 129 120 62 236 252 275 337 315 298
343 345 347 349 352 353 355 359 1 5 7 8 12 15 9 1 347 331 327 327 309 295 285 278 271 274 265 224 209 191 192 190 178 187 213 210 257 141 140 193 240 99 249 229 301 293 255
336 338 340 342 345 347 347 349 351 355 357 357 358 5 8 3 346 322 315 327 313 296 274 270 258 285 247 145 138 196 196 185 166 160 146 156 150 180 150 197 240 161 222 242 276 242 307
332 332 333 337 338 341 344 343 342 341 342 344 344 346 352 357 349 314 304 331 339 309 282 240 260 238 253 301 252 200 202 198 201 138 198 86 218 222 222 219 248 258 262 275 277 279 267
337 330 329 332 335 335 338 338 339 338 336 334 334 335 337 344 350 306 277 274 291 308 295 286 265 255 249 215 275 189 194 179 181 206 152 214 248 245 210 212 225 234 267 275 276 268 214
344 344 337 331 333 335 335 336 337 337 335 331 327 327 327 337 348 5 275 256 299 325 283 296 251 244 236 218 232 211 181 184 184 193 200 226 217 99 194 218 223 231 248 256 278 314 258
336 341 344 336 335 336 337 335 335 336 334 331 325 318 315 321 326 329 307 214 304 324 303 266 219 186 161 153 216 215 193 173 191 217 198 242 256 238 229 245 231 261 238 256 268 297 295
333 339 342 343 341 338 336 336 338 339 338 333 329 321 312 308 302 299 277 219 316 23 301 121 94 130 160 182 120 199 197 202 206 183 187 219 192 168 210 238 181 253 212 255 266 281 275
328 333 337 342 341 340 341 340 339 338 338 333 326 324 307 300 285 286 223 206 158 226 255 81 119 141 151 243 355 105 182 210 216 208 236 255 233 254 256 239 200 278 278 278 238 252 257
323 326 332 337 336 342 342 340 338 339 340 338 336 330 307 280 234 156 160 168 163 228 336 40 44 181 176 194 236 244 173 196 214 199 236 256 253 254 246 265 257 245 257 276 265 238 265
315 318 325 326 330 341 343 341 340 342 343 341 350 12 27 57 185 161 154 127 201 2 19 360 341 17 81 25 32 359 22 233 233 241 264 263 267 211 193 219 253 213 216 246 270 273 284
309 313 317 319 328 331 331 334 339 342 348 347 12 47 39 39 151 160 154 168 173 37 351 343 332 72 255 244 319 351 342 310 325 189 230 220 248 287 237 290 210 182 216 278 271 264 269
319 320 318 325 325 325 326 330 340 343 350 347 359 41 31 80 101 146 83 176 109 52 23 13 84 43 341 345 288 175 246 303 328 2 354 328 286 255 262 270 216 249 165 230 229 278 275
329 325 327 327 325 334 328 339 341 343 351 352 5 78 10 124 54 61 88 29 20 17 83 40 129 87 78 4 315 298 255 241 320 272 308 279 251 253 293 256 264 234 232 214 276 262 272
324 333 331 326 326 334 331 343 344 346 353 1 16 59 11 118 45 29 51 333 345 360 39 120 134 148 176 166 242 248 230 239 348 355 314 301 290 263 261 270 293 271 268 263 245 237 242
323 326 327 328 332 333 334 350 346 350 358 1 352 328 10 113 69 33 345 337 8 16 355 344 195 184 165 195 232 252 254 272 262 227 248 334 248 271 260 237 206 245 239 246 244 262 250
316 320 320 326 330 333 341 342 349 352 358 4 8 348 9 54 52 30 3 6 346 347 341 3 21 127 199 220 218 272 241 287 299 290 275 342 244 239 255 290 298 286 275 253 245 245 256
310 315 324 324 324 325 331 337 340 347 356 16 33 49 11 360 21 13 352 322 319 327 256 293 260 238 241 242 243 240 245 267 268 256 278 263 249 251 261 267 275 272 265 262 256 250 254
300 307 313 320 322 323 328 336 338 345 1 43 66 29 14 45 340 341 282 295 320 350 294 318 239 292 280 282 250 285 267 268 247 220 269 211 262 270 263 273 272 276 268 260 254 255 261
301 299 297 303 314 321 325 334 331 341 353 15 44 91 22 207 347 330 333 356 319 337 294 264 291 330 277 268 293 284 269 260 236 224 218 252 252 279 277 289 290 272 260 250 250 248 254
295 296 295 289 296 305 313 316 324 353 342 343 325 314 98 277 250 319 306 304 295 311 287 282 288 289 266 293 298 286 264 256 248 242 224 235 246 251 276 285 250 351 17 341 227 248 238
287 292 293 291 284 287 294 292 298 291 312 285 281 226 199 253 265 287 269 296 305 304 282 271 282 275 315 309 281 292 246 240 239 226 238 222 227 228 222 219 295 274 214 242 241 286 266
282 284 285 284 283 282 280 287 282 283 275 271 254 240 224 241 247 239 286 281 289 291 286 254 271 303 304 247 233 261 275 315 275 165 45 171 204 223 168 240 253 70 140 146 155 277 76
280 279 282 279 278 279 279 266 278 270 275 262 255 237 219 221 257 235 223 267 249 250 260 286 322 321 262 237 236 246 253 241 273 304 152 143 196 224 221 249 284 232 165 136 255 19 299
278 274 276 278 279 277 274 266 254 257 265 262 263 251 235 226 267 264 254 234 241 213 226 328 323 186 274 248 248 239 258 9 308 320 277 198 175 182 214 217 243 149 161 246 342 301 300
282 275 274 276 280 283 278 269 253 241 255 252 254 257 260 236 265 283 282 277 262 251 245 227 258 290 269 281 296 297 265 278 324 300 266 270 273 248 231 268 45 321 288 310 313 301 305